Time,TemperatureF,DewpointF,PressureIn,WindDirection,WindDirectionDegrees,WindSpeedMPH,WindSpeedGustMPH,Humidity,HourlyPrecipIn,Conditions,Clouds,dailyrainin,SoftwareType,DateUTC
2013-08-23 00:07:00,69.3,67.0,29.80,West,280,0.0,2.0,92,0.00,,,0.00,weatherlink.com 1.10,2013-08-23 04:07:00,
2013-08-23 00:22:00,69.0,66.0,29.80,SSW,213,0.0,1.0,91,0.00,,,0.00,weatherlink.com 1.10,2013-08-23 04:22:00,
2013-08-23 00:37:00,68.5,66.0,29.80,ESE,117,0.0,0.0,91,0.00,,,0.00,weatherlink.com 1.10,2013-08-23 04:37:00,
2013-08-23 00:52:00,68.7,66.0,29.80,West,278,0.0,5.0,90,0.00,,,0.00,weatherlink.com 1.10,2013-08-23 04:52:00,
2013-08-23 01:07:00,68.5,66.0,29.80,NW,321,2.0,5.0,90,0.00,,,0.00,weatherlink.com 1.10,2013-08-23 05:07:00,
2013-08-23 01:22:00,69.0,65.0,29.80,NW,311,3.0,6.0,88,0.00,,,0.00,weatherlink.com 1.10,2013-08-23 05:22:00,
2013-08-23 01:37:00,69.2,65.0,29.81,WSW,256,2.0,9.0,86,0.00,,,0.00,weatherlink.com 1.10,2013-08-23 05:37:00,
2013-08-23 01:52:00,69.2,65.0,29.81,West,278,5.0,9.0,85,0.00,,,0.00,weatherlink.com 1.10,2013-08-23 05:52:00,
2013-08-23 02:07:00,69.2,65.0,29.81,West,278,2.0,13.0,85,0.00,,,0.00,weatherlink.com 1.10,2013-08-23 06:07:00,
2013-08-23 02:22:00,68.6,64.0,29.82,WNW,298,1.0,12.0,86,0.00,,,0.00,weatherlink.com 1.10,2013-08-23 06:22:00,
2013-08-23 02:37:00,68.1,64.0,29.81,SW,226,1.0,8.0,86,0.00,,,0.00,weatherlink.com 1.10,2013-08-23 06:37:00,
2013-08-23 02:52:00,67.3,63.0,29.81,WNW,300,3.0,9.0,87,0.00,,,0.00,weatherlink.com 1.10,2013-08-23 06:52:00,
2013-08-23 03:07:00,66.9,63.0,29.81,West,260,2.0,12.0,88,0.00,,,0.00,weatherlink.com 1.10,2013-08-23 07:07:00,
2013-08-23 03:22:00,66.5,63.0,29.82,West,281,1.0,9.0,88,0.00,,,0.00,weatherlink.com 1.10,2013-08-23 07:22:00,
2013-08-23 03:37:00,66.1,63.0,29.82,WNW,286,5.0,5.0,88,0.00,,,0.00,weatherlink.com 1.10,2013-08-23 07:37:00,
2013-08-23 03:52:00,65.8,63.0,29.82,West,281,3.0,6.0,89,0.00,,,0.00,weatherlink.com 1.10,2013-08-23 07:52:00,
2013-08-23 04:07:00,65.4,62.0,29.82,NW,308,2.0,7.0,89,0.00,,,0.00,weatherlink.com 1.10,2013-08-23 08:07:00,
2013-08-23 04:22:00,65.3,62.0,29.82,WNW,287,3.0,8.0,88,0.00,,,0.00,weatherlink.com 1.10,2013-08-23 08:22:00,
2013-08-23 04:37:00,65.1,62.0,29.83,West,271,2.0,4.0,88,0.00,,,0.00,weatherlink.com 1.10,2013-08-23 08:37:00,
2013-08-23 04:52:00,64.3,61.0,29.83,WSW,253,3.0,6.0,89,0.00,,,0.00,weatherlink.com 1.10,2013-08-23 08:52:00,
2013-08-23 05:07:00,64.8,61.0,29.84,West,274,1.0,10.0,87,0.00,,,0.00,weatherlink.com 1.10,2013-08-23 09:07:00,
2013-08-23 05:22:00,64.4,61.0,29.84,WNW,287,4.0,9.0,87,0.00,,,0.00,weatherlink.com 1.10,2013-08-23 09:22:00,
2013-08-23 05:37:00,64.1,60.0,29.84,West,267,2.0,13.0,87,0.00,,,0.00,weatherlink.com 1.10,2013-08-23 09:37:00,
2013-08-23 05:52:00,63.8,60.0,29.84,West,270,4.0,8.0,87,0.00,,,0.00,weatherlink.com 1.10,2013-08-23 09:52:00,
2013-08-23 06:07:00,63.6,60.0,29.86,WSW,253,3.0,8.0,87,0.00,,,0.00,weatherlink.com 1.10,2013-08-23 10:07:00,
2013-08-23 06:22:00,63.2,59.0,29.86,WNW,288,0.0,7.0,87,0.00,,,0.00,weatherlink.com 1.10,2013-08-23 10:22:00,
2013-08-23 06:37:00,63.2,59.0,29.87,WNW,289,1.0,10.0,87,0.00,,,0.00,weatherlink.com 1.10,2013-08-23 10:37:00,
2013-08-23 06:52:00,63.1,60.0,29.88,East,98,0.0,6.0,88,0.00,,,0.00,weatherlink.com 1.10,2013-08-23 10:52:00,
2013-08-23 07:07:00,63.2,60.0,29.89,NNE,26,0.0,4.0,88,0.00,,,0.00,weatherlink.com 1.10,2013-08-23 11:07:00,
2013-08-23 07:22:00,63.5,60.0,29.89,WNW,302,0.0,1.0,88,0.00,,,0.00,weatherlink.com 1.10,2013-08-23 11:22:00,
2013-08-23 07:38:00,63.6,60.0,29.90,WNW,300,1.0,3.0,87,0.00,,,0.00,weatherlink.com 1.10,2013-08-23 11:38:00,
2013-08-23 07:53:00,64.2,60.0,29.90,WSW,257,2.0,3.0,86,0.00,,,0.00,weatherlink.com 1.10,2013-08-23 11:53:00,
2013-08-23 08:08:00,65.1,61.0,29.91,West,271,1.0,6.0,85,0.00,,,0.00,weatherlink.com 1.10,2013-08-23 12:08:00,
2013-08-23 08:23:00,65.1,60.0,29.91,West,281,1.0,7.0,84,0.00,,,0.00,weatherlink.com 1.10,2013-08-23 12:23:00,
2013-08-23 08:38:00,65.8,60.0,29.90,WNW,300,2.0,7.0,82,0.00,,,0.00,weatherlink.com 1.10,2013-08-23 12:38:00,
2013-08-23 08:53:00,66.9,61.0,29.90,NW,315,2.0,13.0,80,0.00,,,0.00,weatherlink.com 1.10,2013-08-23 12:53:00,
2013-08-23 09:08:00,66.5,60.0,29.91,SW,214,7.0,11.0,79,0.00,,,0.00,weatherlink.com 1.10,2013-08-23 13:08:00,
2013-08-23 09:23:00,67.3,60.0,29.91,WNW,285,5.0,11.0,76,0.00,,,0.00,weatherlink.com 1.10,2013-08-23 13:23:00,
2013-08-23 09:38:00,68.9,60.0,29.91,West,260,2.0,12.0,74,0.00,,,0.00,weatherlink.com 1.10,2013-08-23 13:38:00,
2013-08-23 09:53:00,69.2,59.0,29.92,NE,46,2.0,15.0,71,0.00,,,0.00,weatherlink.com 1.10,2013-08-23 13:53:00,
2013-08-23 10:08:00,70.0,59.0,29.93,South,183,3.0,11.0,69,0.00,,,0.00,weatherlink.com 1.10,2013-08-23 14:08:00,
2013-08-23 10:23:00,70.9,60.0,29.92,NW,304,6.0,13.0,68,0.00,,,0.00,weatherlink.com 1.10,2013-08-23 14:23:00,
2013-08-23 10:38:00,71.4,58.0,29.93,WNW,297,5.0,12.0,62,0.00,,,0.00,weatherlink.com 1.10,2013-08-23 14:38:00,
2013-08-23 10:53:00,72.6,59.0,29.93,NW,304,2.0,10.0,62,0.00,,,0.00,weatherlink.com 1.10,2013-08-23 14:53:00,
2013-08-23 11:08:00,73.3,60.0,29.93,NW,311,1.0,10.0,63,0.00,,,0.00,weatherlink.com 1.10,2013-08-23 15:08:00,
2013-08-23 11:23:00,73.0,57.0,29.93,NNW,345,3.0,10.0,57,0.00,,,0.00,weatherlink.com 1.10,2013-08-23 15:23:00,
2013-08-23 11:38:00,73.4,57.0,29.92,West,270,7.0,12.0,57,0.00,,,0.00,weatherlink.com 1.10,2013-08-23 15:38:00,
2013-08-23 11:53:00,73.7,60.0,29.93,WSW,241,4.0,12.0,62,0.00,,,0.00,weatherlink.com 1.10,2013-08-23 15:53:00,
2013-08-23 12:08:00,73.7,59.0,29.93,SSE,166,7.0,15.0,60,0.00,,,0.00,weatherlink.com 1.10,2013-08-23 16:08:00,
2013-08-23 12:23:00,74.2,58.0,29.92,SSE,149,1.0,11.0,57,0.00,,,0.00,weatherlink.com 1.10,2013-08-23 16:23:00,
2013-08-23 12:38:00,74.9,58.0,29.93,NW,313,8.0,9.0,56,0.00,,,0.00,weatherlink.com 1.10,2013-08-23 16:38:00,
2013-08-23 12:53:00,75.1,57.0,29.93,WNW,299,2.0,11.0,53,0.00,,,0.00,weatherlink.com 1.10,2013-08-23 16:53:00,
2013-08-23 13:08:00,74.5,57.0,29.93,WNW,300,3.0,12.0,55,0.00,,,0.00,weatherlink.com 1.10,2013-08-23 17:08:00,
2013-08-23 13:23:00,74.7,57.0,29.93,WSW,256,5.0,11.0,55,0.00,,,0.00,weatherlink.com 1.10,2013-08-23 17:23:00,
2013-08-23 13:38:00,74.1,57.0,29.93,WNW,283,6.0,6.0,55,0.00,,,0.00,weatherlink.com 1.10,2013-08-23 17:38:00,
2013-08-23 13:53:00,74.2,57.0,29.94,WNW,300,3.0,9.0,55,0.00,,,0.00,weatherlink.com 1.10,2013-08-23 17:53:00,
2013-08-23 14:08:00,74.9,56.0,29.94,WNW,291,3.0,9.0,52,0.00,,,0.00,weatherlink.com 1.10,2013-08-23 18:08:00,
2013-08-23 14:23:00,74.6,56.0,29.94,NW,307,1.0,9.0,53,0.00,,,0.00,weatherlink.com 1.10,2013-08-23 18:23:00,
2013-08-23 14:38:00,75.3,56.0,29.95,ESE,107,7.0,10.0,52,0.00,,,0.00,weatherlink.com 1.10,2013-08-23 18:38:00,
2013-08-23 14:53:00,74.4,55.0,29.95,NNW,339,2.0,11.0,51,0.00,,,0.00,weatherlink.com 1.10,2013-08-23 18:53:00,
2013-08-23 15:08:00,75.0,56.0,29.95,NW,315,1.0,10.0,52,0.00,,,0.00,weatherlink.com 1.10,2013-08-23 19:08:00,
2013-08-23 15:23:00,74.8,55.0,29.95,NW,304,3.0,9.0,50,0.00,,,0.00,weatherlink.com 1.10,2013-08-23 19:23:00,
2013-08-23 15:38:00,75.1,57.0,29.95,NW,311,2.0,9.0,54,0.00,,,0.00,weatherlink.com 1.10,2013-08-23 19:38:00,
2013-08-23 15:53:00,75.3,57.0,29.96,West,269,4.0,10.0,53,0.00,,,0.00,weatherlink.com 1.10,2013-08-23 19:53:00,
2013-08-23 16:08:00,73.8,54.0,29.96,West,262,2.0,7.0,51,0.00,,,0.00,weatherlink.com 1.10,2013-08-23 20:08:00,
2013-08-23 16:23:00,74.7,55.0,29.96,NW,314,3.0,9.0,51,0.00,,,0.00,weatherlink.com 1.10,2013-08-23 20:23:00,
2013-08-23 16:38:00,74.6,54.0,29.96,SE,146,1.0,9.0,49,0.00,,,0.00,weatherlink.com 1.10,2013-08-23 20:38:00,
2013-08-23 16:54:00,74.6,55.0,29.97,NW,309,2.0,8.0,50,0.00,,,0.00,weatherlink.com 1.10,2013-08-23 20:54:00,
2013-08-23 17:09:00,75.0,56.0,29.98,NNE,15,1.0,4.0,51,0.00,,,0.00,weatherlink.com 1.10,2013-08-23 21:09:00,
2013-08-23 17:24:00,74.6,52.0,29.98,NW,321,1.0,8.0,45,0.00,,,0.00,weatherlink.com 1.10,2013-08-23 21:24:00,
2013-08-23 17:39:00,74.1,53.0,29.98,West,264,1.0,9.0,48,0.00,,,0.00,weatherlink.com 1.10,2013-08-23 21:39:00,
2013-08-23 17:54:00,74.5,53.0,29.98,NW,321,1.0,4.0,47,0.00,,,0.00,weatherlink.com 1.10,2013-08-23 21:54:00,
2013-08-23 18:09:00,74.0,54.0,29.99,West,270,0.0,3.0,49,0.00,,,0.00,weatherlink.com 1.10,2013-08-23 22:09:00,
2013-08-23 18:24:00,71.8,54.0,29.99,South,187,1.0,4.0,53,0.00,,,0.00,weatherlink.com 1.10,2013-08-23 22:24:00,
2013-08-23 18:39:00,70.0,53.0,30.00,WNW,283,1.0,4.0,56,0.00,,,0.00,weatherlink.com 1.10,2013-08-23 22:39:00,
2013-08-23 18:54:00,68.4,54.0,30.00,WSW,249,1.0,3.0,60,0.00,,,0.00,weatherlink.com 1.10,2013-08-23 22:54:00,
2013-08-23 19:09:00,67.0,54.0,30.01,WNW,293,1.0,4.0,64,0.00,,,0.00,weatherlink.com 1.10,2013-08-23 23:09:00,
2013-08-23 19:24:00,66.0,54.0,30.02,WSW,256,1.0,3.0,65,0.00,,,0.00,weatherlink.com 1.10,2013-08-23 23:24:00,
2013-08-23 19:39:00,65.0,53.0,30.02,WSW,253,0.0,2.0,66,0.00,,,0.00,weatherlink.com 1.10,2013-08-23 23:39:00,
2013-08-23 19:54:00,64.0,53.0,30.02,WSW,253,1.0,2.0,67,0.00,,,0.00,weatherlink.com 1.10,2013-08-23 23:54:00,
2013-08-23 20:09:00,63.6,53.0,30.03,WSW,245,1.0,4.0,68,0.00,,,0.00,weatherlink.com 1.10,2013-08-24 00:09:00,
2013-08-23 20:24:00,63.5,52.0,30.04,WSW,238,1.0,5.0,66,0.00,,,0.00,weatherlink.com 1.10,2013-08-24 00:24:00,
2013-08-23 20:39:00,63.1,51.0,30.04,West,274,0.0,6.0,65,0.00,,,0.00,weatherlink.com 1.10,2013-08-24 00:39:00,
2013-08-23 20:54:00,63.1,51.0,30.05,West,278,3.0,8.0,64,0.00,,,0.00,weatherlink.com 1.10,2013-08-24 00:54:00,
2013-08-23 21:09:00,63.2,50.0,30.06,NNE,20,2.0,7.0,63,0.00,,,0.00,weatherlink.com 1.10,2013-08-24 01:09:00,
2013-08-23 21:24:00,63.0,50.0,30.07,West,277,2.0,5.0,63,0.00,,,0.00,weatherlink.com 1.10,2013-08-24 01:24:00,
2013-08-23 21:39:00,62.8,50.0,30.07,WNW,291,0.0,5.0,64,0.00,,,0.00,weatherlink.com 1.10,2013-08-24 01:39:00,
2013-08-23 21:54:00,62.3,50.0,30.08,WSW,256,1.0,4.0,64,0.00,,,0.00,weatherlink.com 1.10,2013-08-24 01:54:00,
2013-08-23 22:09:00,61.9,50.0,30.08,West,277,1.0,5.0,65,0.00,,,0.00,weatherlink.com 1.10,2013-08-24 02:09:00,
2013-08-23 22:24:00,61.6,50.0,30.08,SW,226,0.0,5.0,66,0.00,,,0.00,weatherlink.com 1.10,2013-08-24 02:24:00,
2013-08-23 22:39:00,61.1,50.0,30.09,WNW,283,0.0,5.0,67,0.00,,,0.00,weatherlink.com 1.10,2013-08-24 02:39:00,
2013-08-23 22:54:00,60.5,50.0,30.09,NW,311,2.0,6.0,69,0.00,,,0.00,weatherlink.com 1.10,2013-08-24 02:54:00,
2013-08-23 23:09:00,59.9,50.0,30.10,WSW,253,0.0,3.0,70,0.00,,,0.00,weatherlink.com 1.10,2013-08-24 03:09:00,
2013-08-23 23:24:00,59.2,50.0,30.11,WSW,257,0.0,2.0,71,0.00,,,0.00,weatherlink.com 1.10,2013-08-24 03:24:00,
2013-08-23 23:39:00,57.3,49.0,30.11,WNW,295,0.0,0.0,75,0.00,,,0.00,weatherlink.com 1.10,2013-08-24 03:39:00,
2013-08-23 23:55:00,55.6,49.0,30.11,WSW,240,0.0,1.0,79,0.00,,,0.00,weatherlink.com 1.10,2013-08-24 03:55:00,